Location: Barberville
(42.6834°N, 73.5407°W)
Time: 06:45:43
(UTC+00:00)

Daily predictions for brighter satellites

Satellite Brightness Start Highest point End
(mag) Time Altitude Azimuth Time Altitude Azimuth Time Altitude Azimuth
USA 215 3.3 21:50:59 10° ESE 21:57:26 69° NE 22:03:57 10° NW
SWARM A 4.2 21:58:30 10° N 22:01:51 84° E 22:05:09 10° S
BREEZE-M DEB (TANK) 1.6 22:00:01 10° WSW 22:02:11 90° NNW 22:06:06 10° ENE
MOS 1 Rocket 4.2 21:59:06 10° ESE 22:02:28 23° ENE 22:05:55 10° NNE
COSMO-SKYMED 1 4.3 22:01:38 10° ENE 22:03:05 12° E 22:04:32 10° ESE
UNK 3.7 22:02:00 10° NNE 22:06:38 77° ESE 22:11:14 10° S
SAR-Lupe-1 4.4 22:03:56 10° SE 22:07:18 42° ENE 22:10:42 10° N
Meteor 1-28 Rocket 4.0 22:06:42 10° N 22:09:56 46° WNW 22:13:10 10° SSW
Helios 1A Rocket 4.5 22:09:34 10° ENE 22:10:45 11° E 22:11:57 10° ESE
Tsikada Rocket 4.0 22:08:02 10° N 22:14:28 74° E 22:20:48 10° SSE
Cosmos 2016 Rocket 4.3 22:09:06 10° SSW 22:15:22 75° W 22:21:45 10° N
Cosmos 1025 Rocket 4.5 22:11:40 10° NNW 22:15:44 41° W 22:19:45 10° SSW
IGS 5A 3.8 22:11:50 10° S 22:15:47 66° W 22:19:46 10° NNW
RESURS DK-1 3.5 22:14:44 10° N 22:17:52 21° NE 22:20:59 10° ESE
Cosmos 540 Rocket 4.2 22:13:56 10° N 22:18:25 30° ENE 22:22:52 10° ESE
Cosmos 1763 Rocket 4.0 22:13:41 10° N 22:18:27 35° ENE 22:23:08 10° SE
SAR-Lupe-4 3.5 22:15:57 10° SSE 22:19:30 73° ENE 22:23:05 10° N
SL-16 R/B 3.5 22:15:16 10° N 22:21:17 50° WNW 22:27:15 10° SW
Cosmos 1140 Rocket 3.5 22:16:49 10° SSW 22:22:00 87° WNW 22:27:12 10° NNE
Cosmos 1269 Rocket 4.2 22:18:35 10° SSW 22:23:50 75° WNW 22:29:06 10° NNE
BREEZE-M DEB (TANK) 2.5 22:25:03 10° WSW 22:27:11 64° NNW 22:31:01 13° NE
Cosmos 1833 Rocket 2.8 22:21:56 10° NNW 22:27:37 85° WSW 22:33:15 10° SSE
SAR-Lupe-3 3.6 22:25:13 10° NNE 22:27:53 81° ESE 22:30:31 10° SSW
Thor Agena Rocket 4.3 22:22:58 10° S 22:28:08 60° WSW 22:33:22 10° NNW
SJ-12 3.6 22:28:03 10° SSE 22:31:50 81° ENE 22:35:39 10° N
CZ-4C R/B 4.1 22:29:43 10° WNW 22:32:51 17° NNW 22:36:27 10° NNE
YAOGAN 1 3.5 22:31:08 10° ESE 22:34:34 25° ENE 22:38:02 10° NNE
Cosmos 2251 Rocket 4.1 22:31:57 10° SSE 22:36:40 35° E 22:41:14 11° NE
CZ-2D R/B 4.0 22:35:45 10° SE 22:39:30 36° ENE 22:43:21 10° N
Resurs 1-3 4.4 22:38:19 10° SE 22:41:57 27° ENE 22:45:36 10° N
Cosmos 1812 2.3 22:42:32 10° SSE 22:45:17 41° E 22:46:32 25° NE
IRS-P3 4.1 22:40:01 10° SSE 22:45:19 83° ENE 22:50:41 10° NNW
NOSS 3 (A) 3.4 22:44:41 10° SW 22:46:18 62° W 22:46:18 62° W
SJ 16-02 2.3 22:43:23 10° SSE 22:46:51 24° E 22:47:35 23° E
Nadezhda 4 Rocket 4.5 22:42:10 10° N 22:47:55 36° ENE 22:53:35 10° SE
Cosmos 2058 3.4 22:44:27 10° N 22:48:07 34° ENE 22:51:45 10° SE
Okean 2 Rocket 4.0 22:45:46 10° SE 22:49:26 26° E 22:50:29 24° ENE
OAO 2 Rocket 4.5 22:50:08 10° WSW 22:54:41 34° S 22:57:57 17° ESE
Cosmos 1400 Rocket 3.6 22:52:01 10° SSE 22:55:02 28° E 22:55:02 28° E
Cosmos 1869 3.2 22:53:01 10° SSW 22:56:33 71° W 23:00:04 10° N
Cosmos 1536 Rocket 4.1 22:52:42 10° N 22:56:45 34° ENE 23:00:45 10° SE
ARIANE 5 R/B 3.3 22:52:32 10° S 22:57:22 53° W 23:02:15 10° NNW
Cosmos 44 Rocket 3.2 22:55:16 10° SSW 22:59:58 71° ESE 23:03:04 22° NE
Timation 2 Rocket 4.2 22:55:27 10° SSW 23:02:19 87° WNW 23:09:14 10° NNE
SJ-7 4.1 23:02:56 10° SSE 23:06:32 54° ENE 23:10:09 10° N
Cosmos 468 Rocket 4.1 23:03:29 10° N 23:08:34 51° ENE 23:12:48 14° SE
Cosmos 1190 Rocket 4.0 23:07:57 10° S 23:13:10 63° ESE 23:16:32 22° NNE
IRAS Rocket 4.1 23:09:34 10° SSE 23:15:07 76° ENE 23:20:40 10° NNW
Cosmos 676 Rocket 4.4 23:10:54 10° S 23:15:48 39° ESE 23:16:32 37° E
SL-19 R/B 4.0 23:11:45 10° SSE 23:16:56 69° ENE 23:22:07 10° N
Cosmos 2344 4.4 23:15:37 10° NNW 23:22:56 39° NE 23:26:12 31° E
SPOT 1/Viking Rocket 3.6 23:17:58 10° S 23:23:08 78° WSW 23:28:20 10° NNW
SJ-6E 4.5 23:19:58 10° SSE 23:23:42 80° ENE 23:27:29 10° N
Cosmos 407 Rocket 4.4 23:21:44 10° SW 23:26:43 46° WNW 23:31:41 10° N
ATLAS 2AS CENTAUR R/B 4.0 23:21:58 10° NNW 23:26:59 21° NNE 23:27:19 21° NNE
Cosmos 1954 Rocket 3.9 23:21:52 10° S 23:27:06 67° ESE 23:29:11 36° NE
ISS -2.7 23:25:07 10° W 23:28:16 38° NNW 23:28:16 38° NNW
Cosmos 2082 Rocket 2.0 23:24:48 10° NNW 23:30:24 69° ENE 23:33:07 31° SE
Cosmos 1464 Rocket 3.9 23:24:29 10° S 23:30:48 90° WSW 23:37:06 10° N
Cosmos 371 Rocket 3.3 23:26:36 10° S 23:31:10 56° ESE 23:31:10 56° ESE
Cosmos 1943 Rocket 2.8 23:25:51 10° SW 23:31:20 54° WNW 23:36:14 13° NNE
Cosmos 2278 Rocket 2.7 23:26:09 10° SW 23:31:42 57° WNW 23:36:35 14° NNE
Cosmos 2151 Rocket 3.6 23:27:14 10° S 23:31:43 83° W 23:35:05 18° N
OAO 3 Rocket 4.2 23:28:32 10° WSW 23:32:37 31° S 23:33:15 30° SSE
Aureole 3 Rocket 4.0 23:29:55 10° SW 23:32:43 31° WNW 23:34:34 17° NNW
ATLAS 5 CENTAUR R/B 3.7 23:32:31 10° WNW 23:36:45 32° WSW 23:41:46 10° S
Cosmos 304 Rocket 3.6 23:32:43 10° S 23:37:16 66° ESE 23:37:16 66° ESE
COSMO-SKYMED 1 2.9 23:36:04 20° N 23:38:46 59° WNW 23:42:49 10° SSW
Sich 1 Rocket 3.4 23:35:31 10° S 23:40:00 79° E 23:40:00 79° E
Spot 4 Rocket 4.5 23:37:01 10° S 23:42:03 61° WSW 23:47:06 10° NNW
Cosmos 2034 Rocket 3.8 23:36:37 10° S 23:42:45 75° E 23:49:00 10° N
Helios 1A Rocket 3.7 23:43:03 36° NW 23:43:36 39° WNW 23:46:46 10° SW
Okean 1 Rocket 3.2 23:42:45 10° S 23:46:31 65° S 23:46:31 65° S
RESURS DK-1 3.9 23:51:43 10° NW 23:55:22 34° WSW 23:57:09 22° SSW
